TimeAKST,TemperatureF,Dew PointF,Humidity,Sea Level PressureIn,VisibilityMPH,Wind Direction,Wind SpeedMPH,Gust SpeedMPH,PrecipitationIn,Events,Conditions,WindDirDegrees,DateUTC
12:54 AM,18.0,14.0,84,30.19,10.0,WNW,16.1,-,N/A,,Clear,290,2013-11-25 09:54:00
1:54 AM,17.1,14.0,88,30.18,10.0,WNW,17.3,-,N/A,,Clear,290,2013-11-25 10:54:00
2:54 AM,18.0,14.0,84,30.16,10.0,WNW,16.1,-,N/A,,Overcast,290,2013-11-25 11:54:00
3:54 AM,21.9,15.1,75,30.14,10.0,WNW,18.4,23.0,N/A,,Overcast,290,2013-11-25 12:54:00
4:54 AM,19.9,14.0,78,30.11,10.0,WNW,15.0,-,N/A,,Overcast,290,2013-11-25 13:54:00
5:54 AM,21.0,14.0,74,30.10,10.0,WNW,13.8,-,N/A,,Overcast,290,2013-11-25 14:54:00
6:54 AM,21.0,16.0,81,30.08,10.0,WNW,9.2,-,N/A,,Overcast,290,2013-11-25 15:54:00
7:54 AM,19.9,16.0,85,30.06,10.0,WNW,10.4,-,N/A,,Overcast,290,2013-11-25 16:54:00
8:54 AM,21.0,17.1,85,30.06,10.0,WNW,8.1,-,N/A,,Overcast,290,2013-11-25 17:54:00
9:54 AM,21.9,17.1,82,30.05,5.0,West,10.4,-,0.00,Snow,Light Snow,280,2013-11-25 18:54:00
9:59 AM,21.2,17.6,86,30.04,1.8,West,11.5,-,0.00,Snow,Light Snow,280,2013-11-25 18:59:00
10:24 AM,21.2,17.6,86,30.03,0.5,WNW,10.4,-,0.00,Fog-Snow,Snow,290,2013-11-25 19:24:00
10:33 AM,21.2,19.4,93,30.03,0.5,WNW,10.4,-,0.01,Fog-Snow,Snow,290,2013-11-25 19:33:00
10:49 AM,21.2,19.4,93,30.03,0.2,WNW,13.8,-,0.02,Fog-Snow,Snow,290,2013-11-25 19:49:00
10:54 AM,21.0,18.0,88,30.04,0.5,WNW,15.0,-,0.02,Fog-Snow,Snow,290,2013-11-25 19:54:00
11:12 AM,21.2,17.6,86,30.03,0.5,WNW,13.8,-,0.01,Fog-Snow,Snow,290,2013-11-25 20:12:00
11:54 AM,21.9,19.0,89,30.01,0.8,WNW,11.5,-,0.02,Snow,Light Snow,290,2013-11-25 20:54:00
12:01 PM,21.2,19.4,93,30.00,0.5,WNW,11.5,-,0.01,Fog-Snow,Snow,300,2013-11-25 21:01:00
12:09 PM,23.0,19.4,86,30.00,0.2,NW,10.4,-,0.01,Fog-Snow,Heavy Snow,310,2013-11-25 21:09:00
12:19 PM,24.8,21.2,86,29.99,0.2,NW,11.5,-,0.02,Fog-Snow,Snow,310,2013-11-25 21:19:00
12:28 PM,23.0,19.4,86,29.99,0.5,WNW,12.7,-,0.02,Fog-Snow,Snow,290,2013-11-25 21:28:00
12:40 PM,21.2,19.4,93,29.98,0.2,WNW,11.5,-,0.03,Fog-Snow,Heavy Snow,300,2013-11-25 21:40:00
12:54 PM,24.1,21.0,88,29.99,0.2,NW,12.7,-,0.04,Fog-Snow,Heavy Snow,310,2013-11-25 21:54:00
1:11 PM,23.0,19.4,86,29.97,0.5,WNW,9.2,-,0.00,Fog-Snow,Snow,300,2013-11-25 22:11:00
1:54 PM,23.0,19.9,88,29.96,0.5,WNW,10.4,-,0.03,Fog-Snow,Snow,290,2013-11-25 22:54:00
2:15 PM,24.8,21.2,86,29.95,0.8,WNW,10.4,-,0.00,Snow,Light Snow,290,2013-11-25 23:15:00
2:29 PM,24.8,21.2,86,29.95,0.5,WNW,10.4,-,0.01,Fog-Snow,Snow,290,2013-11-25 23:29:00
2:50 PM,23.0,21.2,93,29.94,0.2,WNW,9.2,-,0.02,Fog-Snow,Heavy Snow,290,2013-11-25 23:50:00
2:54 PM,23.0,21.0,92,29.95,0.2,WNW,10.4,-,0.03,Fog-Snow,Snow,290,2013-11-25 23:54:00
3:20 PM,23.0,21.2,93,29.94,0.8,WNW,5.8,-,0.02,Snow,Light Snow,300,2013-11-26 00:20:00
3:26 PM,24.8,21.2,86,29.93,2.0,WNW,9.2,-,0.02,Snow,Light Snow,290,2013-11-26 00:26:00
3:35 PM,24.8,21.2,86,29.93,1.8,WNW,9.2,-,0.03,Snow,Light Snow,300,2013-11-26 00:35:00
3:54 PM,24.1,21.9,91,29.94,1.5,WNW,11.5,-,0.04,Snow,Light Snow,290,2013-11-26 00:54:00
4:15 PM,24.8,21.2,86,29.92,2.0,NW,5.8,-,0.00,Snow,Light Snow,320,2013-11-26 01:15:00
4:23 PM,24.8,23.0,93,29.92,1.0,West,10.4,-,0.01,Snow,Light Snow,280,2013-11-26 01:23:00
4:54 PM,24.1,21.9,91,29.92,1.0,WNW,11.5,-,0.02,Snow,Light Snow,290,2013-11-26 01:54:00
5:11 PM,24.8,21.2,86,29.91,2.5,WNW,8.1,-,0.00,Snow,Light Snow,290,2013-11-26 02:11:00
5:20 PM,24.8,21.2,86,29.91,1.2,WNW,8.1,-,0.00,Snow,Light Snow,290,2013-11-26 02:20:00
5:28 PM,24.8,21.2,86,29.91,0.5,WNW,8.1,-,0.02,Fog-Snow,Snow,290,2013-11-26 02:28:00
5:54 PM,24.1,21.9,91,29.93,0.8,WNW,8.1,-,0.04,Snow,Light Snow,290,2013-11-26 02:54:00
6:01 PM,24.8,21.2,86,29.92,1.5,WNW,8.1,-,0.00,Snow,Light Snow,290,2013-11-26 03:01:00
6:12 PM,24.8,23.0,93,29.92,1.0,WNW,8.1,-,0.01,Snow,Light Snow,300,2013-11-26 03:12:00
6:38 PM,24.8,23.0,93,29.93,0.8,WNW,5.8,-,0.03,Snow,Light Snow,290,2013-11-26 03:38:00
6:50 PM,24.8,23.0,93,29.93,1.2,WNW,5.8,-,0.03,Snow,Light Snow,290,2013-11-26 03:50:00
6:54 PM,25.0,23.0,92,29.94,1.2,WNW,4.6,-,0.03,Snow,Light Snow,290,2013-11-26 03:54:00
7:13 PM,24.8,23.0,93,29.92,1.5,Calm,Calm,-,0.01,Snow,Light Snow,0,2013-11-26 04:13:00
7:37 PM,24.8,23.0,93,29.92,1.2,Calm,Calm,-,0.02,Snow,Light Snow,0,2013-11-26 04:37:00
7:54 PM,24.1,21.0,88,29.94,1.5,NW,3.5,-,0.02,Snow,Light Snow,310,2013-11-26 04:54:00
8:28 PM,24.8,21.2,86,29.93,2.5,Calm,Calm,-,0.01,Snow,Light Snow,0,2013-11-26 05:28:00
8:54 PM,24.1,21.9,91,29.96,2.0,West,6.9,-,0.02,Snow,Light Snow,280,2013-11-26 05:54:00
9:03 PM,24.8,21.2,86,29.95,1.5,WNW,9.2,-,0.00,Snow,Light Snow,300,2013-11-26 06:03:00
9:18 PM,24.8,21.2,86,29.95,1.5,WNW,9.2,-,0.00,Snow,Light Snow,290,2013-11-26 06:18:00
9:37 PM,24.8,21.2,86,29.96,2.5,WNW,9.2,-,0.01,Snow,Light Snow,300,2013-11-26 06:37:00
9:54 PM,24.1,21.9,91,29.97,2.0,WNW,6.9,-,0.01,Snow,Light Snow,290,2013-11-26 06:54:00
9:58 PM,24.8,21.2,86,29.96,1.8,WNW,5.8,-,0.00,Snow,Light Snow,290,2013-11-26 06:58:00
10:11 PM,24.8,21.2,86,29.97,2.0,WNW,9.2,-,0.00,Snow,Light Snow,290,2013-11-26 07:11:00
10:47 PM,24.8,23.0,93,29.99,3.0,WNW,10.4,-,0.00,Snow,Light Snow,300,2013-11-26 07:47:00
10:54 PM,26.1,23.0,88,29.99,2.5,WNW,9.2,-,0.00,Snow,Light Snow,290,2013-11-26 07:54:00
11:06 PM,24.8,23.0,93,29.99,3.0,West,8.1,-,0.00,Snow,Light Snow,280,2013-11-26 08:06:00
11:54 PM,25.0,23.0,92,30.01,4.0,West,9.2,-,0.00,Snow,Light Snow,280,2013-11-26 08:54:00